CW0730 Weather Reports


time (UTC)temp
F
wind
direction
speed
knots
gust
knots
rain 1hr
in
rain 24hr
in
rain mn
in
humidity
%
barometer
mb
20260504231508 54 144 3.5 5.2 0.00 0.02 0.02 75 1003.3
20260504230006 54 173 2.6 5.2 0.00 0.02 0.02 74 1003.2
20260504224510 55 125 1.7 4.3 0.00 0.02 0.02 74 1003.0
20260504223004 54 116 2.6 4.3 0.00 0.02 0.02 75 1002.9
20260504221507 53 195 2.6 6.1 0.00 0.02 0.02 76 1002.9
20260504220003 53 200 5.2 8.7 0.00 0.02 0.02 75 1002.9
20260504214506 55 198 7.0 10.4 0.00 0.02 0.02 71 1002.8
20260504213003 55 193 6.1 10.4 0.00 0.02 0.02 72 1002.7
20260504211502 54 207 6.1 13.0 0.00 0.02 0.02 71 1002.7
20260504210002 54 179 7.8 13.9 0.00 0.02 0.02 69 1002.8
20260504204501 56 217 5.2 11.3 0.00 0.02 0.02 73 1002.8
20260504203002 56 176 7.0 13.9 0.00 0.02 0.02 73 1002.5
20260504201600 57 177 5.2 10.4 0.00 0.02 0.02 75 1002.5
20260504200104 56 189 7.8 11.3 0.00 0.02 0.02 77 1002.5
20260504194605 56 180 7.0 10.4 0.00 0.03 0.02 77 1002.6
20260504193057 55 172 5.2 8.7 0.00 0.03 0.02 81 1002.6
20260504191609 52 146 3.5 5.2 0.01 0.03 0.02 86 1002.7
20260504190053 50 167 1.7 4.3 0.02 0.03 0.02 91 1002.9
20260504184552 48 152 2.6 3.5 0.02 0.06 0.02 91 1003.2
20260504183053 46 178 2.6 6.1 0.02 0.06 0.02 92 1003.5
20260504181557 45 195 5.2 8.7 0.01 0.05 0.01 91 1003.7
20260504180051 45 179 7.0 13.0 0.00 0.04 0.00 89 1003.5
20260504174550 46 179 7.8 17.4 0.00 0.09 0.00 83 1003.3
20260504173047 47 170 12.2 20.0 0.00 0.09 0.00 82 1002.9
20260504171552 48 184 13.0 20.0 0.00 0.09 0.00 77 1002.8
20260504081532 41 250 6.1 10.4 0.00 0.64 0.00 78 1004.2
20260504050013 42 260 6.1 12.2 0.00 0.69 0.00 71 1003.0
20260504044520 42 240 4.3 12.2 0.00 0.69 0.00 70 1003.1
20260504043010 42 230 4.3 11.3 0.00 0.69 0.00 72 1003.1
20260504041512 42 179 5.2 13.0 0.00 0.69 0.00 70 1003.0
20260504040005 42 238 5.2 8.7 0.00 0.69 0.00 70 1002.8
20260504034504 42 240 4.3 8.7 0.00 0.69 0.69 71 1002.6
20260504033010 43 233 3.5 9.6 0.00 0.69 0.69 69 1002.5
20260504031504 43 278 6.1 10.4 0.00 0.69 0.69 66 1002.3
20260504030003 43 248 6.1 12.2 0.00 0.69 0.69 66 1002.2
20260504024503 44 283 5.2 12.2 0.00 0.69 0.69 65 1002.2
20260504023003 44 278 3.5 11.3 0.00 0.69 0.69 65 1002.1
20260504021503 44 233 5.2 12.2 0.00 0.69 0.69 64 1002.0
20260504020002 45 259 5.2 13.9 0.00 0.69 0.69 63 1001.9
20260504014502 45 260 7.8 13.0 0.00 0.69 0.69 63 1001.8
20260504013003 45 307 6.1 15.6 0.00 0.69 0.69 63 1001.6
20260504011603 45 229 7.0 15.6 0.00 0.69 0.69 63 1001.3
20260504010106 45 277 6.1 17.4 0.00 0.69 0.69 65 1001.2
20260504004609 46 282 7.0 14.8 0.00 0.69 0.69 65 1000.9
20260504003057 46 266 7.0 13.9 0.00 0.69 0.69 68 1000.5
20260504003005 46 277 6.1 13.9 0.00 0.69 0.69 68 1000.4
20260504001609 46 285 6.1 13.0 0.00 0.69 0.69 75 1000.3
20260504000104 45 217 1.7 5.2 0.00 0.69 0.69 89 1000.1
20260503234553 45 291 0.9 3.5 0.00 0.69 0.69 89 999.9
20260503233055 46 313 1.7 5.2 0.00 0.69 0.69 88 999.8